This demonstration page uses our WeatherBlox Daily Observations layout. Learn more.

Left ArrowRight Arrow

39.92423, -83.80882

Hourly Observations for February 6, 2022

Temp ( °F °C ) Dew Point ( °F °C ) Humidity (%) Winds ( mph kmh ) Pressure ( in mb ) Visibility ( mi km ) Precip ( " mm )
12:56 am 00:56 Clear with Mist and Fog 11 -11.7 11 -11.7 100 100 S 5 7 30.45 1031 6 10 0.00 0.00
1:56 am 01:56 Clear 11 -11.7 11 -11.7 100 100 SSE 7 11 30.43 1031 7 11 0.00 0.00
2:56 am 02:56 Clear 12 -11.1 12 -11.1 100 100 Calm 30.42 1030 8 13 0.00 0.00
3:35 am 03:35 Clear with Mist and Fog 9 -13 9 -13 100 100 SE 3 6 30.47 1032 3 4 0.00 0.00
3:44 am 03:44 Clear with Mist and Fog 9 -13 9 -13 100 100 SSE 6 9 30.46 1032 3 5 0.00 0.00
3:56 am 03:56 Clear 9 -12.8 9 -12.8 100 100 SSE 7 11 30.41 1030 7 11 0.00 0.00
4:56 am 04:56 Clear 11 -11.7 11 -11.7 100 100 SSE 7 11 30.40 1029 10 16 0.00 0.00
5:56 am 05:56 Clear 13 -10.6 13 -10.6 100 100 SSE 8 13 30.40 1030 10 16 0.00 0.00
6:56 am 06:56 Clear 13 -10.6 13 -10.6 100 100 S 8 13 30.40 1029 10 16 0.00 0.00
7:56 am 07:56 Sunny 14 -10 14 -10 100 100 SSE 7 11 30.41 1030 10 16 0.00 0.00
8:56 am 08:56 Sunny 16 -8.9 16 -8.9 100 100 SSE 6 9 30.40 1029 10 16 0.00 0.00
9:56 am 09:56 Sunny 22 -5.6 17 -8.3 82 82 S 8 13 30.38 1029 10 16 0.00 0.00
10:56 am 10:56 Sunny 26 -3.3 19 -7.2 75 75 S 3 6 30.38 1029 10 16 0.00 0.00
11:56 am 11:56 Sunny 30 -1.1 18 -7.8 61 61 SSW 10 17 30.36 1028 10 16 0.00 0.00
12:56 pm 12:56 Sunny 32 0 20 -6.7 61 61 SSW 8 13 30.34 1027 10 16 0.00 0.00
1:56 pm 13:56 Sunny 34 1.1 17 -8.3 50 50 SSW 6 9 30.32 1027 10 16 0.00 0.00
2:56 pm 14:56 Sunny 35 1.7 17 -8.3 48 48 S 7 11 30.28 1025 10 16 0.00 0.00
3:56 pm 15:56 Sunny 33 0.6 23 -5 66 66 SSE 10 17 30.27 1025 10 16 0.00 0.00
4:56 pm 16:56 Sunny 32 0 25 -3.9 75 75 SSE 6 9 30.27 1025 10 16 0.00 0.00
5:56 pm 17:56 Sunny 29 -1.7 24 -4.4 82 82 SSE 6 9 30.29 1026 10 16 0.00 0.00
6:56 pm 18:56 Clear 28 -2.2 25 -3.9 88 88 SSE 8 13 30.28 1026 10 16 0.00 0.00
7:56 pm 19:56 Clear 28 -2.2 26 -3.3 92 92 S 6 9 30.28 1025 10 16 0.00 0.00
8:56 pm 20:56 Clear 30 -1.1 27 -2.8 88 88 S 6 9 30.27 1025 10 16 0.00 0.00
9:56 pm 21:56 Clear 28 -2.2 25 -3.9 88 88 SW 3 6 30.28 1025 10 16 0.00 0.00
10:56 pm 22:56 Clear 26 -3.3 26 -3.3 100 100 S 5 7 30.27 1025 10 16 0.00 0.00
11:56 pm 23:56 Clear 26 -3.3 26 -3.3 100 100 S 5 7 30.25 1024 10 16 0.00 0.00

Powered by AerisWeather